Dayton Wright, OH

1:12 AM EDT on August 23, 2017 (GMT -0400)
Dayton-Wright Brothers

Weather History for KMGY - November, 2013

Change the Weather History Date:

Tuesday, November 12, 2013

  Actual Average (KFFO) Record (KFFO)
Temperature  
Mean Temperature 29 °F -  
Max Temperature 33 °F 50 °F 70 °F (2010)
Min Temperature 25 °F 33 °F 21 °F (1997)
Degree Days  
Heating Degree Days 36    
Moisture  
Dew Point 22 °F    
Average Humidity 76    
Maximum Humidity 93    
Minimum Humidity 56    
Precipitation  
Precipitation 0.04 in - - ()
Sea Level Pressure  
Sea Level Pressure 30.45 in    
Wind  
Wind Speed 12 mph (North)    
Max Wind Speed 17 mph    
Max Gust Speed 29 mph    
Visibility 7 miles    
Events Snow    
Averages and records for this station are not official NWS values.
T = Trace of Precipitation, MM = Missing Value Source: NWS Daily Summary

Daily Weather History Graph

Daily Weather History Graph

Search for Another Location

Airport or City:

Trip Planner

Search our weather history database for the weather conditions in past years. The results will help you decide how hot, cold, wet, or windy it might be!

Date:

Astronomy

Nov. 12, 2013 Rise Set
Actual Time 7:17 AM EST 5:23 PM EST
Civil Twilight 6:49 AM EST 5:52 PM EST
Nautical Twilight 6:16 AM EST 6:24 PM EST
Astronomical Twilight 5:45 AM EST 6:56 PM EST
Moon 2:36 PM EST (11/12) 2:07 AM EST (11/12)
Length of Visible Light 11h 03m
Length of Day
10h 05m
Waxing Gibbous, 76% of the Moon is Illuminated
Nov 12
Waxing Gibbous
Nov 17
Full
Nov 25
Last Quarter
Dec 2
New
Dec 9
First Quarter

Hourly Weather History & Observations

Time (EST) Temp. Windchill Dew Point Humidity Pressure Visibility Wind Dir Wind Speed Gust Speed Precip Events Conditions
12:31 AM 33.8 °F 26.4 °F 30.2 °F 87% 30.27 in 0.8 mi North 9.2 mph 18.4 mph 0.02 in Snow Light Snow
12:53 AM 32.0 °F 21.2 °F 30.0 °F 92% 30.29 in 1.0 mi North 16.1 mph 24.2 mph 0.04 in Snow Light Snow
1:05 AM 30.2 °F 18.5 °F 28.4 °F 93% 30.28 in 1.2 mi North 17.3 mph 26.5 mph 0.00 in Snow Light Snow
1:33 AM 30.2 °F 19.8 °F 26.6 °F 86% 30.29 in 2.0 mi NNE 13.8 mph 28.8 mph 0.00 in Snow Light Snow
1:44 AM 30.2 °F 19.3 °F 26.6 °F 86% 30.30 in 3.0 mi North 15.0 mph 24.2 mph 0.00 in Snow Light Snow
1:49 AM 30.2 °F 20.8 °F 26.6 °F 86% 30.30 in 2.5 mi North 11.5 mph 23.0 mph 0.00 in Snow Light Snow
1:53 AM 30.0 °F 18.7 °F 27.0 °F 88% 30.32 in 2.5 mi North 16.1 mph - 0.00 in Snow Light Snow
2:05 AM 30.2 °F 19.8 °F 26.6 °F 86% 30.30 in 2.0 mi North 13.8 mph - 0.00 in Snow Light Snow
2:11 AM 30.2 °F 19.8 °F 26.6 °F 86% 30.31 in 1.8 mi North 13.8 mph 21.9 mph 0.00 in Snow Light Snow
2:14 AM 30.2 °F 18.9 °F 26.6 °F 86% 30.31 in 1.5 mi North 16.1 mph 23.0 mph 0.00 in Snow Light Snow
2:26 AM 28.4 °F 17.5 °F 26.6 °F 93% 30.31 in 2.5 mi North 13.8 mph - 0.00 in Snow Light Snow
2:38 AM 28.4 °F 17.0 °F 24.8 °F 86% 30.31 in 4.0 mi North 15.0 mph 23.0 mph 0.00 in Snow Light Snow
2:53 AM 28.9 °F 19.8 °F 25.0 °F 85% 30.34 in 9.0 mi North 10.4 mph - 0.00 in   Overcast
3:53 AM 28.9 °F 19.2 °F 24.1 °F 82% 30.37 in 10.0 mi North 11.5 mph 19.6 mph N/A   Overcast
4:25 AM 28.4 °F 18.5 °F 23.0 °F 80% 30.36 in 10.0 mi North 11.5 mph - N/A   Scattered Clouds
4:53 AM 28.0 °F 17.5 °F 21.0 °F 75% 30.40 in 10.0 mi North 12.7 mph 18.4 mph N/A   Clear
5:53 AM 27.0 °F 16.7 °F 19.9 °F 75% 30.43 in 10.0 mi North 11.5 mph - N/A   Clear
6:53 AM 26.1 °F 15.0 °F 18.0 °F 71% 30.45 in 10.0 mi North 12.7 mph - N/A   Clear
7:53 AM 25.0 °F 14.8 °F 18.0 °F 75% 30.50 in 10.0 mi North 10.4 mph - N/A   Clear
8:53 AM 26.1 °F 15.6 °F 18.0 °F 71% 30.53 in 10.0 mi North 11.5 mph - N/A   Clear
9:53 AM 28.0 °F 16.5 °F 18.0 °F 66% 30.55 in 10.0 mi NNE 15.0 mph 18.4 mph N/A   Clear
10:37 AM 28.4 °F 18.5 °F 19.4 °F 69% 30.53 in 10.0 mi North 11.5 mph - N/A   Mostly Cloudy
10:53 AM 28.0 °F 18.1 °F 18.0 °F 66% 30.57 in 10.0 mi North 11.5 mph - N/A   Mostly Cloudy
11:53 AM 30.0 °F 20.5 °F 19.0 °F 64% 30.56 in 10.0 mi North 11.5 mph - N/A   Mostly Cloudy
12:19 PM 30.2 °F 21.3 °F 19.4 °F 64% 30.53 in 10.0 mi NNW 10.4 mph - N/A   Scattered Clouds
12:53 PM 30.0 °F 21.7 °F 19.0 °F 64% 30.56 in 10.0 mi NNW 9.2 mph - N/A   Scattered Clouds
1:53 PM 32.0 °F 22.5 °F 19.0 °F 59% 30.56 in 10.0 mi NNW 12.7 mph 18.4 mph N/A   Clear
2:53 PM 33.1 °F 23.4 °F 19.0 °F 56% 30.57 in 10.0 mi NW 13.8 mph - N/A   Partly Cloudy
3:53 PM 33.1 °F 23.4 °F 19.9 °F 59% 30.58 in 10.0 mi NNW 13.8 mph - N/A   Scattered Clouds
4:53 PM 32.0 °F 24.2 °F 19.9 °F 61% 30.58 in 10.0 mi North 9.2 mph - N/A   Clear
5:53 PM 30.9 °F 22.8 °F 19.0 °F 61% 30.59 in 10.0 mi NNW 9.2 mph - N/A   Scattered Clouds
6:53 PM 30.0 °F 25.2 °F 19.9 °F 66% 30.59 in 10.0 mi NNW 4.6 mph - N/A   Clear
7:53 PM 30.0 °F 24.1 °F 21.9 °F 72% 30.59 in 10.0 mi NW 5.8 mph - N/A   Clear
8:53 PM 28.0 °F 24.2 °F 21.9 °F 78% 30.61 in 10.0 mi WNW 3.5 mph - N/A   Clear
9:53 PM 28.9 °F 21.9 °F 21.9 °F 75% 30.62 in 10.0 mi NW 6.9 mph - N/A   Clear
10:53 PM 27.0 °F 23.0 °F 21.0 °F 78% 30.62 in 10.0 mi NW 3.5 mph - N/A   Clear
11:53 PM 27.0 °F 21.6 °F 21.9 °F 81% 30.61 in 10.0 mi NW 4.6 mph - N/A   Clear